sat.trackr.live / text

‹ back to catalog

TJS-4

NORAD 44637 · 2019-070A

PAYLOAD ACTIVE UNKNOWN

§ Identity

Operator
Country
PRC
Launch date
2019-10-17
Launch site
XICLF
Launch vehicle
Mass (kg)
RCS (m²)

Purposes: comms

External: N2YO · Heavens-Above · Gunter

§ Orbital elements

Epoch: 2026-09-20T03:37:55.826976Z

Period
1,436.06 min
Inclination
0.0615°
Eccentricity
0.0003091
Mean motion
1.00274133 rev/d
Perigee alt
35,772.9 km
Apogee alt
35,799.0 km
Semi-major
42,164.1 km
B*
0.0000e+0
RAAN
93.8481°
Arg perigee
157.7691°
Mean anomaly
245.4391°
Rev number
2,549

§ Raw data

TJS-41 44637U 19070A   26263.15134059 -.00000174  00000+0  00000+0 0  99992 44637   0.0615  93.8481 0003091 157.7691 245.4391  1.00274133 25499

JSON: /api/v1/satellites/44637 · /tle

For live sub-satellite position, see the globe view (requires WebGL).

§ Visibility from observer

Set your observer location to see the next 7 days of passes ≥ 10°. The values pass through the URL so the page stays shareable.

No JS? Fill the form by hand. The geolocation button needs JavaScript.